TimeEDT,TemperatureF,Dew PointF,Humidity,Sea Level PressureIn,VisibilityMPH,Wind Direction,Wind SpeedMPH,Gust SpeedMPH,PrecipitationIn,Events,Conditions,WindDirDegrees,DateUTC
12:53 AM,46.9,45.0,93,30.02,10.0,Calm,Calm,-,N/A,,Clear,0,2013-09-23 04:53:00
1:53 AM,46.0,44.1,93,30.02,10.0,Calm,Calm,-,N/A,,Clear,0,2013-09-23 05:53:00
2:53 AM,45.0,43.0,93,30.02,10.0,Calm,Calm,-,N/A,,Clear,0,2013-09-23 06:53:00
3:53 AM,44.1,42.1,93,30.03,10.0,Calm,Calm,-,N/A,,Clear,0,2013-09-23 07:53:00
4:53 AM,44.1,42.1,93,30.02,10.0,Calm,Calm,-,N/A,,Clear,0,2013-09-23 08:53:00
5:53 AM,43.0,41.0,93,30.03,10.0,Calm,Calm,-,N/A,,Clear,0,2013-09-23 09:53:00
6:53 AM,43.0,41.0,93,30.05,10.0,Calm,Calm,-,N/A,,Clear,0,2013-09-23 10:53:00
7:53 AM,43.0,41.0,93,30.08,10.0,Calm,Calm,-,N/A,,Clear,0,2013-09-23 11:53:00
8:53 AM,51.1,46.0,83,30.09,10.0,ESE,4.6,-,N/A,,Clear,110,2013-09-23 12:53:00
9:53 AM,55.0,48.0,77,30.10,10.0,ESE,6.9,-,N/A,,Clear,110,2013-09-23 13:53:00
10:53 AM,59.0,48.9,69,30.10,10.0,ESE,6.9,-,N/A,,Clear,120,2013-09-23 14:53:00
11:53 AM,63.0,46.9,56,30.10,10.0,ESE,9.2,-,N/A,,Clear,120,2013-09-23 15:53:00
12:53 PM,66.0,46.9,50,30.09,10.0,SE,10.4,-,N/A,,Clear,130,2013-09-23 16:53:00
1:53 PM,66.9,48.0,51,30.07,10.0,East,5.8,-,N/A,,Clear,90,2013-09-23 17:53:00
2:53 PM,68.0,48.0,49,30.05,10.0,ESE,8.1,-,N/A,,Clear,110,2013-09-23 18:53:00
3:53 PM,71.1,48.9,45,30.04,10.0,East,10.4,-,N/A,,Clear,100,2013-09-23 19:53:00
4:53 PM,71.1,48.0,44,30.03,10.0,East,5.8,-,N/A,,Clear,90,2013-09-23 20:53:00
5:53 PM,70.0,46.9,44,30.03,10.0,SE,8.1,-,N/A,,Clear,130,2013-09-23 21:53:00
6:53 PM,68.0,46.9,47,30.02,10.0,East,8.1,-,N/A,,Clear,90,2013-09-23 22:53:00
7:53 PM,57.9,48.9,72,30.03,10.0,Calm,Calm,-,N/A,,Clear,0,2013-09-23 23:53:00
8:53 PM,53.1,50.0,89,30.04,10.0,Calm,Calm,-,N/A,,Clear,0,2013-09-24 00:53:00
9:53 PM,51.1,48.9,92,30.04,10.0,Calm,Calm,-,N/A,,Clear,0,2013-09-24 01:53:00
10:53 PM,51.1,48.0,89,30.04,10.0,Calm,Calm,-,N/A,,Clear,0,2013-09-24 02:53:00
11:53 PM,50.0,46.9,89,30.04,10.0,Calm,Calm,-,N/A,,Clear,0,2013-09-24 03:53:00